Location: Unspecified
(51.6250°N, 0.8230°E)
Time: 13:13:17
(UTC+01:00)

Cosmos 1674 - Visible Passes

Search period start: 22 October 2019 00:00
Search period end: 31 October 2019 23:00
Orbit: 495 x 519 km, 82.5° (Epoch: 21 October)

Date Brightness Start Highest point End Pass type
(mag) Time Alt. Az. Time Alt. Az. Time Alt. Az.
22 Oct 3.3 05:51:01 10° S 05:54:39 58° E 05:58:21 10° NNE visible
23 Oct 3.8 05:33:28 10° SSE 05:37:01 45° E 05:40:37 10° NNE visible
24 Oct 4.3 05:16:00 10° SSE 05:19:24 35° E 05:22:50 10° NNE visible
24 Oct 3.8 06:52:06 10° WSW 06:55:04 22° WNW 06:58:03 10° NNW visible
25 Oct 4.7 04:58:36 10° SSE 05:01:48 28° E 05:05:02 10° NNE visible
25 Oct 3.6 06:34:06 10° SW 06:37:19 27° WNW 06:40:34 10° N visible
26 Oct 5.0 04:41:18 10° SE 04:44:12 22° E 04:47:10 10° NE visible
26 Oct 3.3 06:16:15 10° SW 06:19:35 33° WNW 06:23:02 10° N visible
27 Oct 5.3 03:25:29 16° ESE 03:26:37 18° E 03:29:13 10° NE visible
27 Oct 2.9 05:00:25 28° SW 05:01:52 42° WNW 05:05:28 10° N visible
28 Oct 5.6 03:09:13 15° E 03:09:13 15° E 03:11:10 10° NE visible
28 Oct 2.6 04:44:07 54° WNW 04:44:09 54° WNW 04:47:51 10° N visible
29 Oct 6.1 02:52:40 10° ENE 02:52:40 10° ENE 02:52:52 10° ENE visible
29 Oct 3.3 04:27:33 43° N 04:27:33 43° N 04:30:14 10° N visible
30 Oct 4.3 04:10:48 26° N 04:10:48 26° N 04:12:34 10° N visible
30 Oct 4.8 05:45:41 10° NW 05:45:41 10° NW 05:45:45 10° NW visible
31 Oct 5.0 03:53:55 17° NNE 03:53:55 17° NNE 03:54:53 10° NNE visible
31 Oct 4.9 05:28:48 10° NW 05:28:48 10° NW 05:28:58 10° NNW visible
